User: anonymous   Login
Location: Unspecified
(0.0000°N, 0.0000°E)
Time: 12:13:03
(UTC+02:00)
Language:

Delta 2 Rocket - Orbit

View from above orbital plane
View from above orbital plane
View from above satellite
View from above satellite

Ground track
Ground track

The orbit data is extracted from the following two-line orbital elements,

1 20453U 90008B   14297.94369431  .00018315  00000-0  11592-2 0  1128
2 20453 035.6240 123.5483 0318791 085.2227 278.4806 14.74783454304938
Epoch (UTC): 24 October 2014 22:38:55
Eccentricity: 0.0318791
inclination: 35.6240°
perigee height: 422 km
apogee height: 870 km
right ascension of ascending node: 123.5483°
argument of perigee: 85.2227°
revolutions per day: 14.74783454
mean anomaly at epoch: 278.4806°
orbit number at epoch: 30493

The dashed part of the orbit path shows where the satellite is in the earth's shadow,  

DLR